owner,sensor,date,latitude,longitude,sea_surface_height_above_sea_level,qcFlag 
COMPS,ioos:station:USF.COMPS:ARP:1,2014-04-01T00:00:00Z,28.4330,-82.6670,-0.39,1111122 
COMPS,ioos:station:USF.COMPS:ARP:1,2014-04-01T00:06:00Z,28.4330,-82.6670,-0.402,1111122 
COMPS,ioos:station:USF.COMPS:ARP:1,2014-04-01T00:12:00Z,28.4330,-82.6670,-0.414,1111122 
COMPS,ioos:station:USF.COMPS:ARP:1,2014-04-01T00:18:00Z,28.4330,-82.6670,-0.425,1111122 
COMPS,ioos:station:USF.COMPS:ARP:1,2014-04-01T00:24:00Z,28.4330,-82.6670,-0.436,1111122 
COMPS,ioos:station:USF.COMPS:ARP:1,2014-04-01T00:30:00Z,28.4330,-82.6670,-0.447,1111122 
COMPS,ioos:station:USF.COMPS:ARP:1,2014-04-01T00:36:00Z,28.4330,-82.6670,-0.457,1111122 
COMPS,ioos:station:USF.COMPS:ARP:1,2014-04-01T00:42:00Z,28.4330,-82.6670,-0.467,1111122 
COMPS,ioos:station:USF.COMPS:ARP:1,2014-04-01T00:48:00Z,28.4330,-82.6670,-0.476,1111122 
COMPS,ioos:station:USF.COMPS:ARP:1,2014-04-01T00:54:00Z,28.4330,-82.6670,-0.485,1111122 
COMPS,ioos:station:USF.COMPS:ARP:1,2014-04-01T01:00:00Z,28.4330,-82.6670,-0.493,1111122 
COMPS,ioos:station:USF.COMPS:ARP:1,2014-04-01T01:06:00Z,28.4330,-82.6670,-0.501,1111122 
COMPS,ioos:station:USF.COMPS:ARP:1,2014-04-01T01:12:00Z,28.4330,-82.6670,-0.509,1111122 
COMPS,ioos:station:USF.COMPS:ARP:1,2014-04-01T01:18:00Z,28.4330,-82.6670,-0.516,1111122 
COMPS,ioos:station:USF.COMPS:ARP:1,2014-04-01T01:24:00Z,28.4330,-82.6670,-0.523,1111122 
COMPS,ioos:station:USF.COMPS:ARP:1,2014-04-01T01:30:00Z,28.4330,-82.6670,-0.529,1111122 
COMPS,ioos:station:USF.COMPS:ARP:1,2014-04-01T01:36:00Z,28.4330,-82.6670,-0.534,1111122 
COMPS,ioos:station:USF.COMPS:ARP:1,2014-04-01T01:42:00Z,28.4330,-82.6670,-0.54,1111122 
COMPS,ioos:station:USF.COMPS:ARP:1,2014-04-01T01:48:00Z,28.4330,-82.6670,-0.546,1111122 
COMPS,ioos:station:USF.COMPS:ARP:1,2014-04-01T01:54:00Z,28.4330,-82.6670,-0.551,1111122 
COMPS,ioos:station:USF.COMPS:ARP:1,2014-04-01T02:00:00Z,28.4330,-82.6670,-0.556,1111122 
COMPS,ioos:station:USF.COMPS:ARP:1,2014-04-01T02:06:00Z,28.4330,-82.6670,-0.561,1111122 
COMPS,ioos:station:USF.COMPS:ARP:1,2014-04-01T02:12:00Z,28.4330,-82.6670,-0.566,1111122 
COMPS,ioos:station:USF.COMPS:ARP:1,2014-04-01T02:18:00Z,28.4330,-82.6670,-0.572,1111122 
COMPS,ioos:station:USF.COMPS:ARP:1,2014-04-01T02:24:00Z,28.4330,-82.6670,-0.576,1111122 
COMPS,ioos:station:USF.COMPS:ARP:1,2014-04-01T02:30:00Z,28.4330,-82.6670,-0.58,1111122 
COMPS,ioos:station:USF.COMPS:ARP:1,2014-04-01T02:36:00Z,28.4330,-82.6670,-0.583,1111122 
COMPS,ioos:station:USF.COMPS:ARP:1,2014-04-01T02:42:00Z,28.4330,-82.6670,-0.586,1111122 
COMPS,ioos:station:USF.COMPS:ARP:1,2014-04-01T02:48:00Z,28.4330,-82.6670,-0.589,1111122 
COMPS,ioos:station:USF.COMPS:ARP:1,2014-04-01T02:54:00Z,28.4330,-82.6670,-0.592,1111122 
COMPS,ioos:station:USF.COMPS:ARP:1,2014-04-01T03:00:00Z,28.4330,-82.6670,-0.594,1111122 
COMPS,ioos:station:USF.COMPS:ARP:1,2014-04-01T03:06:00Z,28.4330,-82.6670,-0.594,1111122 
COMPS,ioos:station:USF.COMPS:ARP:1,2014-04-01T03:12:00Z,28.4330,-82.6670,-0.59,1111122 
COMPS,ioos:station:USF.COMPS:ARP:1,2014-04-01T03:18:00Z,28.4330,-82.6670,-0.584,1111122 
COMPS,ioos:station:USF.COMPS:ARP:1,2014-04-01T03:24:00Z,28.4330,-82.6670,-0.578,1111122 
COMPS,ioos:station:USF.COMPS:ARP:1,2014-04-01T03:30:00Z,28.4330,-82.6670,-0.574,1111122 
COMPS,ioos:station:USF.COMPS:ARP:1,2014-04-01T03:36:00Z,28.4330,-82.6670,-0.568,1111122 
COMPS,ioos:station:USF.COMPS:ARP:1,2014-04-01T03:42:00Z,28.4330,-82.6670,-0.56,1111122 
COMPS,ioos:station:USF.COMPS:ARP:1,2014-04-01T03:48:00Z,28.4330,-82.6670,-0.551,1111122 
COMPS,ioos:station:USF.COMPS:ARP:1,2014-04-01T03:54:00Z,28.4330,-82.6670,-0.539,1111122 
COMPS,ioos:station:USF.COMPS:ARP:1,2014-04-01T04:00:00Z,28.4330,-82.6670,-0.526,1111122 
COMPS,ioos:station:USF.COMPS:ARP:1,2014-04-01T04:06:00Z,28.4330,-82.6670,-0.511,1111122 
COMPS,ioos:station:USF.COMPS:ARP:1,2014-04-01T04:12:00Z,28.4330,-82.6670,-0.493,1111122 
COMPS,ioos:station:USF.COMPS:ARP:1,2014-04-01T04:18:00Z,28.4330,-82.6670,-0.471,1111122 
COMPS,ioos:station:USF.COMPS:ARP:1,2014-04-01T04:24:00Z,28.4330,-82.6670,-0.448,1111122 
COMPS,ioos:station:USF.COMPS:ARP:1,2014-04-01T04:30:00Z,28.4330,-82.6670,-0.422,1111122 
COMPS,ioos:station:USF.COMPS:ARP:1,2014-04-01T04:36:00Z,28.4330,-82.6670,-0.391,1111122 
COMPS,ioos:station:USF.COMPS:ARP:1,2014-04-01T04:42:00Z,28.4330,-82.6670,-0.359,1111122 
COMPS,ioos:station:USF.COMPS:ARP:1,2014-04-01T04:48:00Z,28.4330,-82.6670,-0.326,1111122 
COMPS,ioos:station:USF.COMPS:ARP:1,2014-04-01T04:54:00Z,28.4330,-82.6670,-0.289,1111122 
COMPS,ioos:station:USF.COMPS:ARP:1,2014-04-01T05:00:00Z,28.4330,-82.6670,-0.248,1111122 
COMPS,ioos:station:USF.COMPS:ARP:1,2014-04-01T05:06:00Z,28.4330,-82.6670,-0.204,1111122 
COMPS,ioos:station:USF.COMPS:ARP:1,2014-04-01T05:12:00Z,28.4330,-82.6670,-0.156,1111122 
COMPS,ioos:station:USF.COMPS:ARP:1,2014-04-01T05:18:00Z,28.4330,-82.6670,-0.108,1111122 
COMPS,ioos:station:USF.COMPS:ARP:1,2014-04-01T05:24:00Z,28.4330,-82.6670,-0.059,1111122 
COMPS,ioos:station:USF.COMPS:ARP:1,2014-04-01T05:30:00Z,28.4330,-82.6670,-0.013,1111122 
COMPS,ioos:station:USF.COMPS:ARP:1,2014-04-01T05:36:00Z,28.4330,-82.6670,0.03,1111122 
COMPS,ioos:station:USF.COMPS:ARP:1,2014-04-01T05:42:00Z,28.4330,-82.6670,0.073,1111122 
COMPS,ioos:station:USF.COMPS:ARP:1,2014-04-01T05:48:00Z,28.4330,-82.6670,0.108,1111122 
COMPS,ioos:station:USF.COMPS:ARP:1,2014-04-01T05:54:00Z,28.4330,-82.6670,0.144,1111122 
COMPS,ioos:station:USF.COMPS:ARP:1,2014-04-01T06:00:00Z,28.4330,-82.6670,0.176,1111122 
COMPS,ioos:station:USF.COMPS:ARP:1,2014-04-01T06:06:00Z,28.4330,-82.6670,0.204,1111122 
COMPS,ioos:station:USF.COMPS:ARP:1,2014-04-01T06:12:00Z,28.4330,-82.6670,0.231,1111122 
COMPS,ioos:station:USF.COMPS:ARP:1,2014-04-01T06:18:00Z,28.4330,-82.6670,0.258,1111122 
COMPS,ioos:station:USF.COMPS:ARP:1,2014-04-01T06:24:00Z,28.4330,-82.6670,0.281,1111122 
COMPS,ioos:station:USF.COMPS:ARP:1,2014-04-01T06:30:00Z,28.4330,-82.6670,0.302,1111122 
COMPS,ioos:station:USF.COMPS:ARP:1,2014-04-01T06:36:00Z,28.4330,-82.6670,0.323,1111122 
COMPS,ioos:station:USF.COMPS:ARP:1,2014-04-01T06:42:00Z,28.4330,-82.6670,0.342,1111122 
COMPS,ioos:station:USF.COMPS:ARP:1,2014-04-01T06:48:00Z,28.4330,-82.6670,0.358,1111122 
COMPS,ioos:station:USF.COMPS:ARP:1,2014-04-01T06:54:00Z,28.4330,-82.6670,0.371,1111122 
COMPS,ioos:station:USF.COMPS:ARP:1,2014-04-01T07:00:00Z,28.4330,-82.6670,0.384,1111122 
COMPS,ioos:station:USF.COMPS:ARP:1,2014-04-01T07:06:00Z,28.4330,-82.6670,0.396,1111122 
COMPS,ioos:station:USF.COMPS:ARP:1,2014-04-01T07:12:00Z,28.4330,-82.6670,0.401,1111122 
COMPS,ioos:station:USF.COMPS:ARP:1,2014-04-01T07:18:00Z,28.4330,-82.6670,0.404,1111122 
COMPS,ioos:station:USF.COMPS:ARP:1,2014-04-01T07:24:00Z,28.4330,-82.6670,0.407,1111122 
COMPS,ioos:station:USF.COMPS:ARP:1,2014-04-01T07:30:00Z,28.4330,-82.6670,0.396,1111122 
COMPS,ioos:station:USF.COMPS:ARP:1,2014-04-01T07:36:00Z,28.4330,-82.6670,0.392,1111122 
COMPS,ioos:station:USF.COMPS:ARP:1,2014-04-01T07:42:00Z,28.4330,-82.6670,0.388,1111122 
COMPS,ioos:station:USF.COMPS:ARP:1,2014-04-01T07:48:00Z,28.4330,-82.6670,0.372,1111122 
COMPS,ioos:station:USF.COMPS:ARP:1,2014-04-01T07:54:00Z,28.4330,-82.6670,0.357,1111122 
COMPS,ioos:station:USF.COMPS:ARP:1,2014-04-01T08:00:00Z,28.4330,-82.6670,0.348,1111122 
COMPS,ioos:station:USF.COMPS:ARP:1,2014-04-01T08:06:00Z,28.4330,-82.6670,0.331,1111122 
COMPS,ioos:station:USF.COMPS:ARP:1,2014-04-01T08:12:00Z,28.4330,-82.6670,0.315,1111122 
COMPS,ioos:station:USF.COMPS:ARP:1,2014-04-01T08:18:00Z,28.4330,-82.6670,0.297,1111122 
COMPS,ioos:station:USF.COMPS:ARP:1,2014-04-01T08:24:00Z,28.4330,-82.6670,0.284,1111122 
COMPS,ioos:station:USF.COMPS:ARP:1,2014-04-01T08:30:00Z,28.4330,-82.6670,0.275,1111122 
COMPS,ioos:station:USF.COMPS:ARP:1,2014-04-01T08:36:00Z,28.4330,-82.6670,0.267,1111122 
COMPS,ioos:station:USF.COMPS:ARP:1,2014-04-01T08:42:00Z,28.4330,-82.6670,0.251,1111122 
COMPS,ioos:station:USF.COMPS:ARP:1,2014-04-01T08:48:00Z,28.4330,-82.6670,0.234,1111122 
COMPS,ioos:station:USF.COMPS:ARP:1,2014-04-01T08:54:00Z,28.4330,-82.6670,0.225,1111122 
COMPS,ioos:station:USF.COMPS:ARP:1,2014-04-01T09:00:00Z,28.4330,-82.6670,0.21,1111122 
COMPS,ioos:station:USF.COMPS:ARP:1,2014-04-01T09:06:00Z,28.4330,-82.6670,0.193,1111122 
COMPS,ioos:station:USF.COMPS:ARP:1,2014-04-01T09:12:00Z,28.4330,-82.6670,0.183,1111122 
COMPS,ioos:station:USF.COMPS:ARP:1,2014-04-01T09:18:00Z,28.4330,-82.6670,0.172,1111122 
COMPS,ioos:station:USF.COMPS:ARP:1,2014-04-01T09:24:00Z,28.4330,-82.6670,0.159,1111122 
COMPS,ioos:station:USF.COMPS:ARP:1,2014-04-01T09:30:00Z,28.4330,-82.6670,0.148,1111122 
COMPS,ioos:station:USF.COMPS:ARP:1,2014-04-01T09:36:00Z,28.4330,-82.6670,0.127,1111122 
COMPS,ioos:station:USF.COMPS:ARP:1,2014-04-01T09:42:00Z,28.4330,-82.6670,0.106,1111122 
COMPS,ioos:station:USF.COMPS:ARP:1,2014-04-01T09:48:00Z,28.4330,-82.6670,0.095,1111122 
COMPS,ioos:station:USF.COMPS:ARP:1,2014-04-01T09:54:00Z,28.4330,-82.6670,0.081,1111122 
COMPS,ioos:station:USF.COMPS:ARP:1,2014-04-01T10:00:00Z,28.4330,-82.6670,0.064,1111122 
COMPS,ioos:station:USF.COMPS:ARP:1,2014-04-01T10:06:00Z,28.4330,-82.6670,0.048,1111122 
COMPS,ioos:station:USF.COMPS:ARP:1,2014-04-01T10:12:00Z,28.4330,-82.6670,0.033,1111122 
COMPS,ioos:station:USF.COMPS:ARP:1,2014-04-01T10:18:00Z,28.4330,-82.6670,0.015,1111122 
COMPS,ioos:station:USF.COMPS:ARP:1,2014-04-01T10:24:00Z,28.4330,-82.6670,-0.001,1111122 
COMPS,ioos:station:USF.COMPS:ARP:1,2014-04-01T10:30:00Z,28.4330,-82.6670,-0.017,1111122 
COMPS,ioos:station:USF.COMPS:ARP:1,2014-04-01T10:36:00Z,28.4330,-82.6670,-0.032,1111122 
COMPS,ioos:station:USF.COMPS:ARP:1,2014-04-01T10:42:00Z,28.4330,-82.6670,-0.049,1111122 
COMPS,ioos:station:USF.COMPS:ARP:1,2014-04-01T10:48:00Z,28.4330,-82.6670,-0.066,1111122 
COMPS,ioos:station:USF.COMPS:ARP:1,2014-04-01T10:54:00Z,28.4330,-82.6670,-0.084,1111122 
COMPS,ioos:station:USF.COMPS:ARP:1,2014-04-01T11:00:00Z,28.4330,-82.6670,-0.1,1111122 
COMPS,ioos:station:USF.COMPS:ARP:1,2014-04-01T11:06:00Z,28.4330,-82.6670,-0.116,1111122 
COMPS,ioos:station:USF.COMPS:ARP:1,2014-04-01T11:12:00Z,28.4330,-82.6670,-0.131,1111122 
COMPS,ioos:station:USF.COMPS:ARP:1,2014-04-01T11:18:00Z,28.4330,-82.6670,-0.148,1111122 
COMPS,ioos:station:USF.COMPS:ARP:1,2014-04-01T11:24:00Z,28.4330,-82.6670,-0.165,1111122 
COMPS,ioos:station:USF.COMPS:ARP:1,2014-04-01T11:30:00Z,28.4330,-82.6670,-0.18,1111122 
COMPS,ioos:station:USF.COMPS:ARP:1,2014-04-01T11:36:00Z,28.4330,-82.6670,-0.195,1111122 
COMPS,ioos:station:USF.COMPS:ARP:1,2014-04-01T11:42:00Z,28.4330,-82.6670,-0.211,1111122 
COMPS,ioos:station:USF.COMPS:ARP:1,2014-04-01T11:48:00Z,28.4330,-82.6670,-0.226,1111122 
COMPS,ioos:station:USF.COMPS:ARP:1,2014-04-01T11:54:00Z,28.4330,-82.6670,-0.237,1111122 
COMPS,ioos:station:USF.COMPS:ARP:1,2014-04-01T12:00:00Z,28.4330,-82.6670,-0.248,1111122 
COMPS,ioos:station:USF.COMPS:ARP:1,2014-04-01T12:06:00Z,28.4330,-82.6670,-0.259,1111122 
COMPS,ioos:station:USF.COMPS:ARP:1,2014-04-01T12:12:00Z,28.4330,-82.6670,-0.272,1111122 
COMPS,ioos:station:USF.COMPS:ARP:1,2014-04-01T12:18:00Z,28.4330,-82.6670,-0.285,1111122 
COMPS,ioos:station:USF.COMPS:ARP:1,2014-04-01T12:24:00Z,28.4330,-82.6670,-0.297,1111122 
COMPS,ioos:station:USF.COMPS:ARP:1,2014-04-01T12:30:00Z,28.4330,-82.6670,-0.309,1111122 
COMPS,ioos:station:USF.COMPS:ARP:1,2014-04-01T12:36:00Z,28.4330,-82.6670,-0.321,1111122 
COMPS,ioos:station:USF.COMPS:ARP:1,2014-04-01T12:42:00Z,28.4330,-82.6670,-0.332,1111122 
COMPS,ioos:station:USF.COMPS:ARP:1,2014-04-01T12:48:00Z,28.4330,-82.6670,-0.343,1111122 
COMPS,ioos:station:USF.COMPS:ARP:1,2014-04-01T12:54:00Z,28.4330,-82.6670,-0.355,1111122 
COMPS,ioos:station:USF.COMPS:ARP:1,2014-04-01T13:00:00Z,28.4330,-82.6670,-0.365,1111122 
COMPS,ioos:station:USF.COMPS:ARP:1,2014-04-01T13:06:00Z,28.4330,-82.6670,-0.376,1111122 
COMPS,ioos:station:USF.COMPS:ARP:1,2014-04-01T13:12:00Z,28.4330,-82.6670,-0.387,1111122 
COMPS,ioos:station:USF.COMPS:ARP:1,2014-04-01T13:18:00Z,28.4330,-82.6670,-0.397,1111122 
COMPS,ioos:station:USF.COMPS:ARP:1,2014-04-01T13:24:00Z,28.4330,-82.6670,-0.407,1111122 
COMPS,ioos:station:USF.COMPS:ARP:1,2014-04-01T13:30:00Z,28.4330,-82.6670,-0.417,1111122 
COMPS,ioos:station:USF.COMPS:ARP:1,2014-04-01T13:36:00Z,28.4330,-82.6670,-0.426,1111122 
COMPS,ioos:station:USF.COMPS:ARP:1,2014-04-01T13:42:00Z,28.4330,-82.6670,-0.434,1111122 
COMPS,ioos:station:USF.COMPS:ARP:1,2014-04-01T13:48:00Z,28.4330,-82.6670,-0.441,1111122 
COMPS,ioos:station:USF.COMPS:ARP:1,2014-04-01T13:54:00Z,28.4330,-82.6670,-0.446,1111122 
COMPS,ioos:station:USF.COMPS:ARP:1,2014-04-01T14:00:00Z,28.4330,-82.6670,-0.448,1111122 
COMPS,ioos:station:USF.COMPS:ARP:1,2014-04-01T14:06:00Z,28.4330,-82.6670,-0.448,1111122 
COMPS,ioos:station:USF.COMPS:ARP:1,2014-04-01T14:12:00Z,28.4330,-82.6670,-0.436,1111122 
COMPS,ioos:station:USF.COMPS:ARP:1,2014-04-01T14:18:00Z,28.4330,-82.6670,-0.43,1111122 
COMPS,ioos:station:USF.COMPS:ARP:1,2014-04-01T14:24:00Z,28.4330,-82.6670,-0.423,1111122 
COMPS,ioos:station:USF.COMPS:ARP:1,2014-04-01T14:30:00Z,28.4330,-82.6670,-0.41,1111122 
COMPS,ioos:station:USF.COMPS:ARP:1,2014-04-01T14:36:00Z,28.4330,-82.6670,-0.396,1111122 
COMPS,ioos:station:USF.COMPS:ARP:1,2014-04-01T14:42:00Z,28.4330,-82.6670,-0.382,1111122 
COMPS,ioos:station:USF.COMPS:ARP:1,2014-04-01T14:48:00Z,28.4330,-82.6670,-0.365,1111122 
COMPS,ioos:station:USF.COMPS:ARP:1,2014-04-01T14:54:00Z,28.4330,-82.6670,-0.346,1111122 
COMPS,ioos:station:USF.COMPS:ARP:1,2014-04-01T15:00:00Z,28.4330,-82.6670,-0.327,1111122 
COMPS,ioos:station:USF.COMPS:ARP:1,2014-04-01T15:06:00Z,28.4330,-82.6670,-0.305,1111122 
COMPS,ioos:station:USF.COMPS:ARP:1,2014-04-01T15:12:00Z,28.4330,-82.6670,-0.283,1111122 
COMPS,ioos:station:USF.COMPS:ARP:1,2014-04-01T15:18:00Z,28.4330,-82.6670,-0.26,1111122 
COMPS,ioos:station:USF.COMPS:ARP:1,2014-04-01T15:24:00Z,28.4330,-82.6670,-0.236,1111122 
COMPS,ioos:station:USF.COMPS:ARP:1,2014-04-01T15:30:00Z,28.4330,-82.6670,-0.208,1111122 
COMPS,ioos:station:USF.COMPS:ARP:1,2014-04-01T15:36:00Z,28.4330,-82.6670,-0.178,1111122 
COMPS,ioos:station:USF.COMPS:ARP:1,2014-04-01T15:42:00Z,28.4330,-82.6670,-0.148,1111122 
COMPS,ioos:station:USF.COMPS:ARP:1,2014-04-01T15:48:00Z,28.4330,-82.6670,-0.115,1111122 
COMPS,ioos:station:USF.COMPS:ARP:1,2014-04-01T15:54:00Z,28.4330,-82.6670,-0.081,1111122 
COMPS,ioos:station:USF.COMPS:ARP:1,2014-04-01T16:00:00Z,28.4330,-82.6670,-0.047,1111122 
COMPS,ioos:station:USF.COMPS:ARP:1,2014-04-01T16:06:00Z,28.4330,-82.6670,-0.013,1111122 
COMPS,ioos:station:USF.COMPS:ARP:1,2014-04-01T16:12:00Z,28.4330,-82.6670,0.02,1111122 
COMPS,ioos:station:USF.COMPS:ARP:1,2014-04-01T16:18:00Z,28.4330,-82.6670,0.057,1111122 
COMPS,ioos:station:USF.COMPS:ARP:1,2014-04-01T16:24:00Z,28.4330,-82.6670,0.09,1111122 
COMPS,ioos:station:USF.COMPS:ARP:1,2014-04-01T16:30:00Z,28.4330,-82.6670,0.123,1111122 
COMPS,ioos:station:USF.COMPS:ARP:1,2014-04-01T16:36:00Z,28.4330,-82.6670,0.159,1111122 
COMPS,ioos:station:USF.COMPS:ARP:1,2014-04-01T16:42:00Z,28.4330,-82.6670,0.192,1111122 
COMPS,ioos:station:USF.COMPS:ARP:1,2014-04-01T16:48:00Z,28.4330,-82.6670,0.223,1111122 
COMPS,ioos:station:USF.COMPS:ARP:1,2014-04-01T16:54:00Z,28.4330,-82.6670,0.255,1111122 
COMPS,ioos:station:USF.COMPS:ARP:1,2014-04-01T17:00:00Z,28.4330,-82.6670,0.285,1111122 
COMPS,ioos:station:USF.COMPS:ARP:1,2014-04-01T17:06:00Z,28.4330,-82.6670,0.316,1111122 
COMPS,ioos:station:USF.COMPS:ARP:1,2014-04-01T17:12:00Z,28.4330,-82.6670,0.345,1111122 
COMPS,ioos:station:USF.COMPS:ARP:1,2014-04-01T17:18:00Z,28.4330,-82.6670,0.371,1111122 
COMPS,ioos:station:USF.COMPS:ARP:1,2014-04-01T17:24:00Z,28.4330,-82.6670,0.398,1111122 
COMPS,ioos:station:USF.COMPS:ARP:1,2014-04-01T17:30:00Z,28.4330,-82.6670,0.426,1111122 
COMPS,ioos:station:USF.COMPS:ARP:1,2014-04-01T17:36:00Z,28.4330,-82.6670,0.453,1111122 
COMPS,ioos:station:USF.COMPS:ARP:1,2014-04-01T17:42:00Z,28.4330,-82.6670,0.473,1111122 
COMPS,ioos:station:USF.COMPS:ARP:1,2014-04-01T17:48:00Z,28.4330,-82.6670,0.49,1111122 
COMPS,ioos:station:USF.COMPS:ARP:1,2014-04-01T18:00:00Z,28.4330,-82.6670,0.532,1111122 
COMPS,ioos:station:USF.COMPS:ARP:1,2014-04-01T18:06:00Z,28.4330,-82.6670,0.549,1111122 
COMPS,ioos:station:USF.COMPS:ARP:1,2014-04-01T18:12:00Z,28.4330,-82.6670,0.563,1111122 
COMPS,ioos:station:USF.COMPS:ARP:1,2014-04-01T18:18:00Z,28.4330,-82.6670,0.577,1111122 
COMPS,ioos:station:USF.COMPS:ARP:1,2014-04-01T18:24:00Z,28.4330,-82.6670,0.587,1111122 
COMPS,ioos:station:USF.COMPS:ARP:1,2014-04-01T18:30:00Z,28.4330,-82.6670,0.594,1111122 
COMPS,ioos:station:USF.COMPS:ARP:1,2014-04-01T18:36:00Z,28.4330,-82.6670,0.599,1111122 
COMPS,ioos:station:USF.COMPS:ARP:1,2014-04-01T18:42:00Z,28.4330,-82.6670,0.596,1111122 
COMPS,ioos:station:USF.COMPS:ARP:1,2014-04-01T18:48:00Z,28.4330,-82.6670,0.589,1111122 
COMPS,ioos:station:USF.COMPS:ARP:1,2014-04-01T18:54:00Z,28.4330,-82.6670,0.588,1111122 
COMPS,ioos:station:USF.COMPS:ARP:1,2014-04-01T19:00:00Z,28.4330,-82.6670,0.582,1111122 
COMPS,ioos:station:USF.COMPS:ARP:1,2014-04-01T19:06:00Z,28.4330,-82.6670,0.58,1111122 
COMPS,ioos:station:USF.COMPS:ARP:1,2014-04-01T19:12:00Z,28.4330,-82.6670,0.565,1111122 
COMPS,ioos:station:USF.COMPS:ARP:1,2014-04-01T19:18:00Z,28.4330,-82.6670,0.549,1111122 
COMPS,ioos:station:USF.COMPS:ARP:1,2014-04-01T19:24:00Z,28.4330,-82.6670,0.531,1111122 
COMPS,ioos:station:USF.COMPS:ARP:1,2014-04-01T19:30:00Z,28.4330,-82.6670,0.521,1111122 
COMPS,ioos:station:USF.COMPS:ARP:1,2014-04-01T19:36:00Z,28.4330,-82.6670,0.501,1111122 
COMPS,ioos:station:USF.COMPS:ARP:1,2014-04-01T19:42:00Z,28.4330,-82.6670,0.485,1111122 
COMPS,ioos:station:USF.COMPS:ARP:1,2014-04-01T19:48:00Z,28.4330,-82.6670,0.468,1111122 
COMPS,ioos:station:USF.COMPS:ARP:1,2014-04-01T19:54:00Z,28.4330,-82.6670,0.456,1111122 
COMPS,ioos:station:USF.COMPS:ARP:1,2014-04-01T20:00:00Z,28.4330,-82.6670,0.449,1111122 
COMPS,ioos:station:USF.COMPS:ARP:1,2014-04-01T20:06:00Z,28.4330,-82.6670,0.429,1111122 
COMPS,ioos:station:USF.COMPS:ARP:1,2014-04-01T20:12:00Z,28.4330,-82.6670,0.419,1111122 
COMPS,ioos:station:USF.COMPS:ARP:1,2014-04-01T20:18:00Z,28.4330,-82.6670,0.408,1111122 
COMPS,ioos:station:USF.COMPS:ARP:1,2014-04-01T20:24:00Z,28.4330,-82.6670,0.386,1111122 
COMPS,ioos:station:USF.COMPS:ARP:1,2014-04-01T20:30:00Z,28.4330,-82.6670,0.375,1111122 
COMPS,ioos:station:USF.COMPS:ARP:1,2014-04-01T20:36:00Z,28.4330,-82.6670,0.362,1111122 
COMPS,ioos:station:USF.COMPS:ARP:1,2014-04-01T20:42:00Z,28.4330,-82.6670,0.345,1111122 
COMPS,ioos:station:USF.COMPS:ARP:1,2014-04-01T20:48:00Z,28.4330,-82.6670,0.327,1111122 
COMPS,ioos:station:USF.COMPS:ARP:1,2014-04-01T20:54:00Z,28.4330,-82.6670,0.311,1111122 
COMPS,ioos:station:USF.COMPS:ARP:1,2014-04-01T21:00:00Z,28.4330,-82.6670,0.289,1111122 
COMPS,ioos:station:USF.COMPS:ARP:1,2014-04-01T21:06:00Z,28.4330,-82.6670,0.273,1111122 
COMPS,ioos:station:USF.COMPS:ARP:1,2014-04-01T21:12:00Z,28.4330,-82.6670,0.254,1111122 
COMPS,ioos:station:USF.COMPS:ARP:1,2014-04-01T21:18:00Z,28.4330,-82.6670,0.237,1111122 
COMPS,ioos:station:USF.COMPS:ARP:1,2014-04-01T21:24:00Z,28.4330,-82.6670,0.216,1111122 
COMPS,ioos:station:USF.COMPS:ARP:1,2014-04-01T21:30:00Z,28.4330,-82.6670,0.197,1111122 
COMPS,ioos:station:USF.COMPS:ARP:1,2014-04-01T21:36:00Z,28.4330,-82.6670,0.178,1111122 
COMPS,ioos:station:USF.COMPS:ARP:1,2014-04-01T21:42:00Z,28.4330,-82.6670,0.162,1111122 
COMPS,ioos:station:USF.COMPS:ARP:1,2014-04-01T21:48:00Z,28.4330,-82.6670,0.142,1111122 
COMPS,ioos:station:USF.COMPS:ARP:1,2014-04-01T21:54:00Z,28.4330,-82.6670,0.12,1111122 
COMPS,ioos:station:USF.COMPS:ARP:1,2014-04-01T22:00:00Z,28.4330,-82.6670,0.1,1111122 
COMPS,ioos:station:USF.COMPS:ARP:1,2014-04-01T22:06:00Z,28.4330,-82.6670,0.081,1111122 
COMPS,ioos:station:USF.COMPS:ARP:1,2014-04-01T22:12:00Z,28.4330,-82.6670,0.06,1111122 
COMPS,ioos:station:USF.COMPS:ARP:1,2014-04-01T22:18:00Z,28.4330,-82.6670,0.04,1111122 
COMPS,ioos:station:USF.COMPS:ARP:1,2014-04-01T22:24:00Z,28.4330,-82.6670,0.016,1111122 
COMPS,ioos:station:USF.COMPS:ARP:1,2014-04-01T22:30:00Z,28.4330,-82.6670,-0.004,1111122 
COMPS,ioos:station:USF.COMPS:ARP:1,2014-04-01T22:36:00Z,28.4330,-82.6670,-0.023,1111122 
COMPS,ioos:station:USF.COMPS:ARP:1,2014-04-01T22:42:00Z,28.4330,-82.6670,-0.043,1111122 
COMPS,ioos:station:USF.COMPS:ARP:1,2014-04-01T22:48:00Z,28.4330,-82.6670,-0.065,1111122 
COMPS,ioos:station:USF.COMPS:ARP:1,2014-04-01T22:54:00Z,28.4330,-82.6670,-0.086,1111122 
COMPS,ioos:station:USF.COMPS:ARP:1,2014-04-01T23:00:00Z,28.4330,-82.6670,-0.106,1111122 
COMPS,ioos:station:USF.COMPS:ARP:1,2014-04-01T23:06:00Z,28.4330,-82.6670,-0.126,1111122 
COMPS,ioos:station:USF.COMPS:ARP:1,2014-04-01T23:12:00Z,28.4330,-82.6670,-0.144,1111122 
COMPS,ioos:station:USF.COMPS:ARP:1,2014-04-01T23:18:00Z,28.4330,-82.6670,-0.114,1111122 
COMPS,ioos:station:USF.COMPS:ARP:1,2014-04-01T23:24:00Z,28.4330,-82.6670,-0.177,1111122 
COMPS,ioos:station:USF.COMPS:ARP:1,2014-04-01T23:30:00Z,28.4330,-82.6670,-0.194,1111122 
COMPS,ioos:station:USF.COMPS:ARP:1,2014-04-01T23:36:00Z,28.4330,-82.6670,-0.21,1111122 
COMPS,ioos:station:USF.COMPS:ARP:1,2014-04-01T23:42:00Z,28.4330,-82.6670,-0.226,1111122 
COMPS,ioos:station:USF.COMPS:ARP:1,2014-04-01T23:48:00Z,28.4330,-82.6670,-0.243,1111122 
COMPS,ioos:station:USF.COMPS:ARP:1,2014-04-01T23:54:00Z,28.4330,-82.6670,-0.259,1111122 
COMPS,ioos:station:USF.COMPS:ARP:1,2014-04-02T00:00:00Z,28.4330,-82.6670,-0.275,1111122 
COMPS,ioos:station:USF.COMPS:ARP:1,2014-04-02T00:06:00Z,28.4330,-82.6670,-0.291,1111122 
COMPS,ioos:station:USF.COMPS:ARP:1,2014-04-02T00:12:00Z,28.4330,-82.6670,-0.306,1111122 
COMPS,ioos:station:USF.COMPS:ARP:1,2014-04-02T00:18:00Z,28.4330,-82.6670,-0.32,1111122 
COMPS,ioos:station:USF.COMPS:ARP:1,2014-04-02T00:24:00Z,28.4330,-82.6670,-0.334,1111122 
COMPS,ioos:station:USF.COMPS:ARP:1,2014-04-02T00:30:00Z,28.4330,-82.6670,-0.348,1111122 
COMPS,ioos:station:USF.COMPS:ARP:1,2014-04-02T00:36:00Z,28.4330,-82.6670,-0.361,1111122 
COMPS,ioos:station:USF.COMPS:ARP:1,2014-04-02T00:42:00Z,28.4330,-82.6670,-0.374,1111122 
COMPS,ioos:station:USF.COMPS:ARP:1,2014-04-02T00:48:00Z,28.4330,-82.6670,-0.386,1111122 
COMPS,ioos:station:USF.COMPS:ARP:1,2014-04-02T00:54:00Z,28.4330,-82.6670,-0.399,1111122 
COMPS,ioos:station:USF.COMPS:ARP:1,2014-04-02T01:00:00Z,28.4330,-82.6670,-0.41,1111122 
COMPS,ioos:station:USF.COMPS:ARP:1,2014-04-02T01:06:00Z,28.4330,-82.6670,-0.421,1111122 
COMPS,ioos:station:USF.COMPS:ARP:1,2014-04-02T01:12:00Z,28.4330,-82.6670,-0.432,1111122 
COMPS,ioos:station:USF.COMPS:ARP:1,2014-04-02T01:18:00Z,28.4330,-82.6670,-0.441,1111122 
COMPS,ioos:station:USF.COMPS:ARP:1,2014-04-02T01:24:00Z,28.4330,-82.6670,-0.451,1111122 
COMPS,ioos:station:USF.COMPS:ARP:1,2014-04-02T01:30:00Z,28.4330,-82.6670,-0.461,1111122 
COMPS,ioos:station:USF.COMPS:ARP:1,2014-04-02T01:36:00Z,28.4330,-82.6670,-0.47,1111122 
COMPS,ioos:station:USF.COMPS:ARP:1,2014-04-02T01:42:00Z,28.4330,-82.6670,-0.478,1111122 
COMPS,ioos:station:USF.COMPS:ARP:1,2014-04-02T01:48:00Z,28.4330,-82.6670,-0.486,1111122 
COMPS,ioos:station:USF.COMPS:ARP:1,2014-04-02T01:54:00Z,28.4330,-82.6670,-0.494,1111122 
COMPS,ioos:station:USF.COMPS:ARP:1,2014-04-02T02:00:00Z,28.4330,-82.6670,-0.502,1111122 
COMPS,ioos:station:USF.COMPS:ARP:1,2014-04-02T02:12:00Z,28.4330,-82.6670,-0.517,1111122 
COMPS,ioos:station:USF.COMPS:ARP:1,2014-04-02T02:18:00Z,28.4330,-82.6670,-0.523,1111122 
COMPS,ioos:station:USF.COMPS:ARP:1,2014-04-02T02:24:00Z,28.4330,-82.6670,-0.529,1111122 
COMPS,ioos:station:USF.COMPS:ARP:1,2014-04-02T02:30:00Z,28.4330,-82.6670,-0.535,1111122 
COMPS,ioos:station:USF.COMPS:ARP:1,2014-04-02T02:36:00Z,28.4330,-82.6670,-0.54,1111122 
COMPS,ioos:station:USF.COMPS:ARP:1,2014-04-02T02:42:00Z,28.4330,-82.6670,-0.545,1111122 
COMPS,ioos:station:USF.COMPS:ARP:1,2014-04-02T02:48:00Z,28.4330,-82.6670,-0.551,1111122 
COMPS,ioos:station:USF.COMPS:ARP:1,2014-04-02T02:54:00Z,28.4330,-82.6670,-0.556,1111122 
COMPS,ioos:station:USF.COMPS:ARP:1,2014-04-02T03:00:00Z,28.4330,-82.6670,-0.56,1111122 
COMPS,ioos:station:USF.COMPS:ARP:1,2014-04-02T03:06:00Z,28.4330,-82.6670,-0.565,1111122 